Regional Weather Roundup
Issued by NWS

Home | Current Version | Previous Version | Graphics & Text | Print | Product List | Glossary On
Versions: 1 2 3 4 5 6 7 8 9 10 11 12 13 14 15 16 17 18 19 20 21 22 23 24 25 26 27 28 29 30 31 32 33 34 35 36 37 38 39 40 41 42 43 44 45 46 47 48 49 50
000
ASUS43 KIND 211909
RWRIN

WEATHER ROUNDUP FOR INDIANA
NATIONAL WEATHER SERVICE INDIANAPOLIS IN
300 PM EDT SUN JUL 21 2019

NOTE: "FAIR" INDICATES FEW OR NO CLOUDS BELOW 12,000 FEET WITH NO
SIGNIFICANT WEATHER AND/OR OBSTRUCTIONS TO VISIBILITY.

* - STATION DOES NOT REPORT WEATHER SUCH AS PRECIPITATION OR FOG.

+ - STATION NOT QUALITY CONTROLLED BY THE NATIONAL WEATHER SERVICE.
    USE DATA WITH CAUTION...ESPECIALLY DEWPOINT AND RELATIVE
    HUMIDITY OBSERVATIONS.

INZ001>003-010>013-019-020-212000-
NORTHWEST INDIANA

CITY           SKY/WX    TMP DP  RH WIND       PRES   REMARKS
GARY /AIRPORT/ CLOUDY    73  72  94 N21       29.92F
KNOX *+        FAIR      86  75  70 MISG      29.85F HX  95
LA PORTE +     TSTM     N/A N/A N/A N16G23    29.91S
MICHIGAN CITY+ CLOUDY    73  55  53 N13G22    29.93S
MONTICELLO +   PTSUNNY   90  74  59 S8        29.85F HX  98
RENSSELAER +   RAIN      82  77  83 SE6       29.85F HX  91
VALPARAISO     CLOUDY    75  71  87 N16G26    29.90S

$$

LMZ046-743>745-212000-
SOUTHERN LAKE MICHIGAN

STATION/POSITION TIME  TEMP    WIND        PRES    WAVE
                       AIR SEA DIR/SP/G            HT
                 (UTC) (F)     (DEG/KT/KT) (MB)    (FT)
BURNS HARBOR     1840   72     360/ 10/ 15 1013.9F
MICHIGAN CITY    1830   74     360/ 20/ 22   N/A
5NW MICH CITY    1900   73 76  350/ 19/ 25   N/A     4

$$

INZ004-005-014>016-021>024-212000-
NORTH CENTRAL INDIANA

CITY           SKY/WX    TMP DP  RH WIND       PRES   REMARKS
GOSHEN         LGT RAIN  85  76  74 CALM      29.89F HX  94
LOGANSPORT +   PTSUNNY   88  75  66 SW5       29.88F HX  97
PERU/GRISSOM   MOSUNNY   92  75  57 SW9       29.87F HX 102
PLYMOUTH *+    MOSUNNY   90  75  62 S9        29.86F HX 100
ROCHESTER +    FAIR      91  73  55 SW3       29.88F HX 100
SOUTH BEND     PTSUNNY   84  75  74 N15       29.88F HX  92
WARSAW +       FAIR      88  73  62 S3        29.89F HX  96

$$

INZ006>009-017-018-025>027-212000-
NORTHEAST INDIANA

CITY           SKY/WX    TMP DP  RH WIND       PRES   REMARKS
ANGOLA *+      FAIR      84  75  74 NE5       29.91F HX  92
AUBURN +       PTSUNNY   86  77  74 W3        29.90F HX  97
FORT WAYNE     PTSUNNY   89  72  56 S7        29.89F HX  96
HUNTINGTON +   PTSUNNY  N/A N/A N/A S5        29.89F
KENDALLVILLE + PTSUNNY   87  73  62 SW5       29.91F HX  95

$$

INZ028-029-035-036-043>045-051>053-212000-
WEST CENTRAL INDIANA

CITY           SKY/WX    TMP DP  RH WIND       PRES   REMARKS
CRAWFORDSVL +  FAIR      89  75  64 S10G17    29.88F HX  98
GREENCASTLE +  PTSUNNY   88  75  66 CALM      29.91S HX  97
LAFAYETTE      FAIR      88  73  61 S7        29.85F HX  95
TERRE HAUTE    FAIR      93  76  57 SW13      29.89F HX 105

$$

INZ030>032-037>040-046>048-054>057-064-065-212000-
CENTRAL INDIANA

CITY           SKY/WX    TMP DP  RH WIND       PRES   REMARKS
FISHERS *+     FAIR     N/A N/A N/A SW8       29.89F
FRANKFORT +    CLOUDY    93  74  53 SW10      29.90F HX 102
GREENWOOD *+   PTSUNNY   89  74  60 SW8       29.91F HX  97
INDIANAPOLIS   PTSUNNY   92  73  53 SW15      29.89F HX 100
-EAGLE CREEK   FAIR      91  73  55 SW9       29.89F HX  99
KOKOMO +       PTSUNNY   90  75  61 S10       29.88F HX 100
MARION +       FAIR     N/A N/A N/A CALM      29.90F
SHELBYVILLE    FAIR      92  71  50 S9        29.90F HX  98
ZIONSVILLE +   FAIR      91  74  58 SW12      29.91F HX 100

$$

INZ033-034-041-042-049-050-058-059-212000-
EAST CENTRAL INDIANA

CITY           SKY/WX    TMP DP  RH WIND       PRES   REMARKS
MUNCIE         FAIR      93  73  52 S9G17     29.90F HX 102
PORTLAND +     FAIR     N/A N/A N/A SW7       29.89F
RICHMOND +     FAIR      86  79  79 SW8       29.94F HX  99

$$

INZ060-061-067>069-081>083-085>088-212000-
SOUTHWEST INDIANA

CITY           SKY/WX    TMP DP  RH WIND       PRES   REMARKS
EVANSVILLE     FAIR      92  74  55 SW12      29.91F HX 101
HUNTINGBURG +  PTSUNNY   88  77  69 S9        29.93S HX 100
WASHINGTON +   FAIR      93  74  53 SW12      29.90F HX 102

$$

INZ062-063-066-070>080-084-089>092-212000-
SOUTH CENTRAL AND SOUTHEAST INDIANA

CITY           SKY/WX    TMP DP  RH WIND       PRES   REMARKS
BATESVILLE +   SUNNY     90  75  62 CALM      29.92F HX 100
BEDFORD +        N/A     90  73  58 S8        29.91F HX  98
BLOOMINGTON    FAIR      89  77  67 W10       29.91F HX 101
FRENCH LICK *+ PTSUNNY   88  73  62 S6        29.93F HX  96
JEFFERSONVL +  FAIR      93  71  47 SW8       29.92F HX  99
MADISON *+     FAIR      90  73  58 S8        29.95S HX  98
NORTH VERNON + FAIR      91  70  49 SW9       29.91F HX  97

$$




USA.gov is the U.S. government's official web portal to all federal, state and local government web resources and services.